Regional Weather Roundup
Issued by NWS

Home | Current Version | Previous Version | Graphics & Text | Print | Product List | Glossary On
Versions: 1 2 3 4 5 6 7 8 9 10 11 12 13 14 15 16 17 18 19 20 21 22 23 24 25 26 27 28 29 30 31 32 33 34 35 36 37 38 39 40 41 42 43 44 45 46 47 48 49 50
000
ASUS43 KBIS 010920
RWRND

NORTH DAKOTA REGIONAL WEATHER ROUNDUP
NATIONAL WEATHER SERVICE BISMARCK ND
400 AM CDT FRI AUG 01 2014

NOTE: "FAIR" INDICATES FEW OR NO CLOUDS BELOW 12,000 FEET WITH NO
SIGNIFICANT WEATHER AND/OR OBSTRUCTIONS TO VISIBILITY.


NDZ001>003-009>011-017-011000-
NORTHWEST NORTH DAKOTA

CITY           SKY/WX    TMP DP  RH WIND       PRES   REMARKS
WILLISTON      CLEAR     67  58  72 CALM      30.03F
MINOT          CLEAR     57  54  89 CALM      30.06S
MINOT AFB      CLEAR     56  55  99 N2        30.06S
$$

NDZ018>021-031>035-040>046-011000-
SOUTHWEST NORTH DAKOTA

CITY           SKY/WX    TMP DP  RH WIND       PRES   REMARKS
BISMARCK       PTCLDY    62  56  80 NE7       30.07R
DICKINSON      CLEAR     58  53  84 SE8       30.05S
GARRISON         N/A     59  55  87 E3        30.07R
HETTINGER ARPT CLEAR     55  52  89 CALM      30.07S
$$

NDZ004>008-012>016-024-026-027-054-011000-
NORTHEAST NORTH DAKOTA

CITY           SKY/WX    TMP DP  RH WIND       PRES   REMARKS
GRAND FORKS    MOCLDY    62  60  93 CALM      30.02S
GRND FRKS AFB  PTCLDY    60  60 100 NW5       30.04R
DEVILS LAKE    CLEAR     63  57  82 NE3       30.06R
$$

NDZ022-023-025-028>030-036>039-047>053-011000-
SOUTHEAST NORTH DAKOTA

CITY           SKY/WX    TMP DP  RH WIND       PRES   REMARKS
FARGO          CLEAR     63  59  87 W3        30.02R
JAMESTOWN      CLEAR     61  57  87 SW3       30.06R
$$




USA.gov is the U.S. government's official web portal to all federal, state and local government web resources and services.